Zurück zum Katalog

STARLINK-6150

AktivKommunikationVLEO
NORAD 57119·PAYLOAD·🇺🇸 United States

Gestartet Jun 23, 2023 von Cape Canaveral Space Force Station

Loading…

Nächste Überflüge (nächste 24 Stunden)

TLE

AktuellSource: CelesTrak SupGP

Epoche: Sep 15, 2026, 02:58 UTC

1 57119C 23090U   26258.12409722  .00007984  00000+0  28917-3 0  2582
2 57119  43.0015 291.9424 0000886 286.7359 352.5022 15.27577475    11

Verfolge STARLINK-6150 in Echtzeit mit AllMySat

Download on the App Store